Change the Weather History Date:

Friday, August 15, 2014

  Actual Average Record
Temperature  
Mean Temperature 80 °F -  
Max Temperature 92 °F - - ()
Min Temperature 67 °F - - ()
Cooling Degree Days 14    
Growing Degree Days 30 (Base 50)    
Moisture  
Dew Point 67 °F    
Average Humidity 66    
Maximum Humidity 94    
Minimum Humidity 30    
Precipitation  
Precipitation 0.00 in - - ()
Sea Level Pressure  
Sea Level Pressure 29.90 in    
Wind  
Wind Speed 4 mph ()    
Max Wind Speed 13 mph    
Max Gust Speed 26 mph    
Visibility 5.6 miles    
Events      
T = Trace of Precipitation, MM = Missing Value Source: Averaged Metar Reports

Daily Weather History Graph

Daily Weather History Graph

Search for Another Location

Airport or City:

Trip Planner

Search our weather history database for the weather conditions in past years. The results will help you decide how hot, cold, wet, or windy it might be!

Date:

Astronomy

Aug. 15, 2014 Rise Set
Actual Time 6:08 AM WITA 6:04 PM WITA
Civil Twilight 5:46 AM WITA 6:26 PM WITA
Nautical Twilight 5:21 AM WITA 6:50 PM WITA
Astronomical Twilight 4:57 AM WITA 7:15 PM WITA
Moon 10:18 PM WITA (8/15) 9:44 AM WITA (8/15)
Length of Visible Light 12h 39m
Length of Day
11h 56m
Waning Gibbous, 74% of the Moon is Illuminated
Aug 15
Waning Gibbous
Aug 17
Last Quarter
Aug 25
New
Sep 2
First Quarter
Sep 9
Full

Hourly Weather History & Observations

Time (WITA) Temp. Heat Index Dew Point Humidity Pressure Visibility Wind Dir Wind Speed Gust Speed Precip Events Conditions
12:00 AM 73.4 °F - 68.0 °F 83% 29.92 in 5.0 mi ESE 4.6 mph - N/A   Partly Cloudy
12:30 AM 73.4 °F - 66.2 °F 78% 29.92 in 5.0 mi East 2.3 mph - N/A   Partly Cloudy
1:00 AM 73.4 °F - 66.2 °F 78% 29.92 in 5.0 mi ESE 3.5 mph - N/A   Partly Cloudy
1:30 AM 73.4 °F - 66.2 °F 78% 29.92 in 5.0 mi ENE 3.5 mph - N/A   Partly Cloudy
2:00 AM 72 °F - 67 °F 80% 29.93 in 5 mi ESE 3.5 mph - -   Scattered Clouds
2:00 AM 71.6 °F - 68.0 °F 88% 29.92 in 5.0 mi ESE 3.5 mph - N/A   Partly Cloudy
2:30 AM 69.8 °F - 66.2 °F 88% 29.92 in 5.0 mi SSE 3.5 mph - N/A   Partly Cloudy
3:00 AM 69.8 °F - 66.2 °F 88% 29.92 in 5.0 mi South 5.8 mph - N/A   Partly Cloudy
3:30 AM 69.8 °F - 66.2 °F 88% 29.92 in 5.0 mi SE 2.3 mph - N/A   Partly Cloudy
4:00 AM 69.8 °F - 66.2 °F 88% 29.92 in 5.0 mi ESE 3.5 mph - N/A   Partly Cloudy
4:30 AM 69.8 °F - 66.2 °F 88% 29.92 in 5.0 mi SE 3.5 mph - N/A   Partly Cloudy
5:00 AM 69 °F - 66 °F 89% 29.93 in 5 mi SSE 3.5 mph - -   Scattered Clouds
5:00 AM 68.0 °F - 66.2 °F 94% 29.92 in 5.0 mi SSE 3.5 mph - N/A   Partly Cloudy
5:30 AM 68.0 °F - 66.2 °F 94% 29.92 in 5.0 mi SSE 3.5 mph - N/A   Partly Cloudy
6:00 AM 68.0 °F - 66.2 °F 94% 29.92 in 6.2 mi SE 3.5 mph - N/A   Partly Cloudy
6:30 AM 68.0 °F - 66.2 °F 94% 29.95 in 6.2 mi SSE 3.5 mph - N/A   Partly Cloudy
7:00 AM 71.6 °F - 66.2 °F 83% 29.95 in 6.2 mi Variable 2.3 mph - N/A   Partly Cloudy
7:30 AM 75.2 °F - 68.0 °F 78% 29.95 in 6.2 mi Variable 2.3 mph - N/A   Partly Cloudy
8:00 AM 81 °F - 64 °F 48% 29.96 in 6 mi East 3.5 mph - -   Scattered Clouds
8:00 AM 80.6 °F 82.3 °F 64.4 °F 58% 29.95 in 6.2 mi East 3.5 mph - N/A   Partly Cloudy
8:30 AM 84.2 °F 85.6 °F 64.4 °F 51% 29.95 in 6.2 mi Variable 2.3 mph - N/A   Partly Cloudy
9:00 AM 86.0 °F 86.6 °F 62.6 °F 45% 29.95 in 6.2 mi Variable 2.3 mph - N/A   Partly Cloudy
9:30 AM 87.8 °F 90.4 °F 66.2 °F 49% 29.95 in 6.2 mi Variable 2.3 mph - N/A   Partly Cloudy
10:00 AM 87.8 °F 89.4 °F 64.4 °F 46% 29.95 in 6.2 mi Variable 2.3 mph - N/A   Partly Cloudy
10:30 AM 89.6 °F 91.1 °F 64.4 °F 43% 29.92 in 6.2 mi Variable 3.5 mph - N/A   Partly Cloudy
11:00 AM 90 °F - 62 °F 30% 29.93 in 6 mi ENE 4.6 mph - -   Scattered Clouds
11:00 AM 89.6 °F 90.1 °F 62.6 °F 40% 29.92 in 6.2 mi ENE 4.6 mph - N/A   Partly Cloudy
11:30 AM 91.4 °F 94.0 °F 66.2 °F 43% 29.92 in 6.2 mi Variable 4.6 mph - N/A   Partly Cloudy
12:00 PM 91.4 °F 93.2 °F 64.4 °F 41% 29.89 in 6.2 mi Variable 3.5 mph - N/A   Partly Cloudy
12:30 PM 91.4 °F 95.4 °F 68.0 °F 46% 29.89 in 6.2 mi Variable 3.5 mph - N/A   Partly Cloudy
1:00 PM 91.4 °F 95.4 °F 68.0 °F 46% 29.86 in 6.2 mi WSW 8.1 mph - N/A   Scattered Clouds
1:30 PM 91.4 °F 96.8 °F 69.8 °F 49% 29.86 in 6.2 mi West 10.4 mph - N/A   Partly Cloudy
2:00 PM 91 °F - 69 °F 39% 29.85 in 6 mi West 10.4 mph - -   Scattered Clouds
2:00 PM 91.4 °F 95.4 °F 68.0 °F 46% 29.83 in 6.2 mi West 10.4 mph - N/A   Partly Cloudy
2:30 PM 89.6 °F 93.4 °F 68.0 °F 49% 29.83 in 6.2 mi West 12.7 mph - N/A   Partly Cloudy
3:00 PM 87.8 °F 91.4 °F 68.0 °F 52% 29.83 in 6.2 mi West 12.7 mph 26.5 mph N/A   Scattered Clouds
3:30 PM 87.8 °F 92.6 °F 69.8 °F 55% 29.83 in 6.2 mi West 10.4 mph - N/A   Scattered Clouds
4:00 PM 87.8 °F 91.4 °F 68.0 °F 52% 29.83 in 6.2 mi West 6.9 mph 18.4 mph N/A   Partly Cloudy
4:30 PM 87.8 °F 92.6 °F 69.8 °F 55% 29.83 in 6.2 mi NW 8.1 mph - N/A   Partly Cloudy
5:00 PM 86 °F - 71 °F 53% 29.84 in 6 mi NNW 8.1 mph - -   Scattered Clouds
5:00 PM 86.0 °F 91.8 °F 71.6 °F 62% 29.83 in 6.2 mi NNW 8.1 mph - N/A   Partly Cloudy
5:30 PM 84.2 °F 90.9 °F 73.4 °F 70% 29.83 in 6.2 mi NW 9.2 mph - N/A   Partly Cloudy
6:00 PM 84.2 °F 90.9 °F 73.4 °F 70% 29.83 in 6.2 mi NNW 9.2 mph - N/A   Partly Cloudy
6:30 PM 82.4 °F 87.2 °F 71.6 °F 70% 29.86 in 5.0 mi North 6.9 mph - N/A   Partly Cloudy
7:00 PM 80.6 °F 84.6 °F 71.6 °F 74% 29.86 in 5.0 mi North 5.8 mph - N/A   Partly Cloudy
7:30 PM 78.8 °F - 69.8 °F 74% 29.86 in 5.0 mi NNE 4.6 mph - N/A   Partly Cloudy
8:00 PM 78 °F - 68 °F 65% 29.89 in 5 mi NE 3.5 mph - -   Scattered Clouds
8:00 PM 77.0 °F - 68.0 °F 74% 29.89 in 5.0 mi NE 3.5 mph - N/A   Partly Cloudy
8:30 PM 77.0 °F - 68.0 °F 74% 29.89 in 5.0 mi Variable 2.3 mph - N/A   Partly Cloudy
9:00 PM 77.0 °F - 68.0 °F 74% 29.89 in 5.0 mi ENE 4.6 mph - N/A   Partly Cloudy
9:30 PM 77.0 °F - 68.0 °F 74% 29.89 in 5.0 mi ESE 5.8 mph - N/A   Partly Cloudy
10:00 PM 77.0 °F - 66.2 °F 69% 29.89 in 5.0 mi East 4.6 mph - N/A   Partly Cloudy
10:30 PM 75.2 °F - 66.2 °F 73% 29.89 in 5.0 mi ESE 4.6 mph - N/A   Partly Cloudy
11:00 PM 76 °F - 66 °F 65% 29.91 in 5 mi ESE 3.5 mph - -   Scattered Clouds
11:00 PM 75.2 °F - 66.2 °F 73% 29.89 in 5.0 mi ESE 3.5 mph - N/A   Partly Cloudy
11:30 PM 75.2 °F - 66.2 °F 73% 29.89 in 5.0 mi ENE 3.5 mph - N/A   Partly Cloudy